Platteville, WI

2:54 AM CDT on October 18, 2017 (GMT -0500)
Platteville Municipal

Weather History for KPVB - January, 2013

Change the Weather History Date:

Wednesday, January 30, 2013

  Actual Average (KDBQ) Record (KDBQ)
Temperature  
Mean Temperature 24 °F -  
Max Temperature 33 °F 25 °F 52 °F (1890)
Min Temperature 15 °F 9 °F -25 °F (1951)
Degree Days  
Heating Degree Days 41    
Moisture  
Dew Point 23 °F    
Average Humidity 86    
Maximum Humidity 100    
Minimum Humidity 73    
Precipitation  
Precipitation 0.04 in - - ()
Sea Level Pressure  
Sea Level Pressure 29.47 in    
Wind  
Wind Speed 16 mph (NW)    
Max Wind Speed 24 mph    
Max Gust Speed 29 mph    
Visibility 5 miles    
Events      
Averages and records for this station are not official NWS values.
T = Trace of Precipitation, MM = Missing Value Source: NWS Daily Summary

Daily Weather History Graph

Daily Weather History Graph

Search for Another Location

Airport or City:

Trip Planner

Search our weather history database for the weather conditions in past years. The results will help you decide how hot, cold, wet, or windy it might be!

Date:

Astronomy

Jan. 30, 2013 Rise Set
Actual Time 7:17 AM CST 5:12 PM CST
Civil Twilight 6:47 AM CST 5:42 PM CST
Nautical Twilight 6:13 AM CST 6:16 PM CST
Astronomical Twilight 5:40 AM CST 6:50 PM CST
Moon 9:18 PM CST (1/30) 8:39 AM CST (1/30)
Length of Visible Light 10h 55m
Length of Day
9h 55m
Waning Gibbous, 87% of the Moon is Illuminated
Jan 30
Waning Gibbous
Feb 3
Last Quarter
Feb 10
New
Feb 17
First Quarter
Feb 25
Full

Hourly Weather History & Observations

Time (CST) Temp. Windchill Dew Point Humidity Pressure Visibility Wind Dir Wind Speed Gust Speed Precip Events Conditions
12:15 AM 33.8 °F 23.9 °F 32.0 °F 93% 29.48 in 10.0 mi North 15.0 mph - N/A   Overcast
12:35 AM 33.8 °F 24.3 °F 32.0 °F 93% 29.46 in 10.0 mi North 13.8 mph - N/A   Overcast
12:55 AM 33.8 °F 23.2 °F 32.0 °F 93% 29.44 in 10.0 mi NNE 17.3 mph - N/A   Overcast
1:15 AM 33.8 °F 23.5 °F 32.0 °F 93% 29.43 in 10.0 mi North 16.1 mph - N/A   Overcast
1:35 AM 33.8 °F 24.3 °F 32.0 °F 93% 29.45 in 10.0 mi North 13.8 mph 21.9 mph N/A   Overcast
1:55 AM 33.8 °F 24.3 °F 32.0 °F 93% 29.46 in 10.0 mi North 13.8 mph 17.3 mph N/A   Overcast
2:15 AM 32.0 °F 23.0 °F 32.0 °F 100% 29.47 in 7.0 mi North 11.5 mph - N/A   Overcast
2:35 AM 32.0 °F 22.1 °F 32.0 °F 100% 29.47 in 7.0 mi North 13.8 mph - N/A   Overcast
2:55 AM 32.0 °F 23.0 °F 32.0 °F 100% 29.46 in 3.0 mi North 11.5 mph - N/A   Overcast
3:35 AM 32.0 °F 23.6 °F 32.0 °F 100% 29.45 in 4.0 mi North 10.4 mph - 0.01 in   Overcast
3:55 AM 32.0 °F 22.1 °F 32.0 °F 100% 29.44 in 1.5 mi North 13.8 mph - 0.01 in   Overcast
4:15 AM 32.0 °F 22.1 °F 32.0 °F 100% 29.41 in 1.5 mi North 13.8 mph - N/A   Mostly Cloudy
4:35 AM 32.0 °F 22.5 °F 32.0 °F 100% 29.41 in 2.0 mi North 12.7 mph - N/A   Overcast
4:55 AM 32.0 °F 22.1 °F 32.0 °F 100% 29.38 in 1.8 mi North 13.8 mph - 0.01 in   Overcast
5:15 AM 32.0 °F 21.6 °F 32.0 °F 100% 29.38 in 1.8 mi North 15.0 mph 19.6 mph N/A   Overcast
5:35 AM 32.0 °F 21.2 °F 30.2 °F 93% 29.36 in 4.0 mi North 16.1 mph 20.7 mph N/A   Overcast
6:15 AM 32.0 °F 22.5 °F 30.2 °F 93% 29.35 in 1.8 mi NNE 12.7 mph - N/A   Overcast
6:35 AM 32.0 °F 23.6 °F 30.2 °F 93% 29.38 in 1.5 mi North 10.4 mph - N/A   Overcast
6:55 AM 32.0 °F 21.6 °F 30.2 °F 93% 29.36 in 2.0 mi North 15.0 mph - N/A   Overcast
7:15 AM 32.0 °F 21.2 °F 30.2 °F 93% 29.37 in 0.8 mi North 16.1 mph - 0.01 in   Overcast
7:35 AM 32.0 °F 18.9 °F 30.2 °F 93% 29.35 in 0.8 mi North 24.2 mph - 0.01 in   Overcast
7:55 AM 32.0 °F 20.5 °F 30.2 °F 93% 29.38 in 0.5 mi NNW 18.4 mph 24.2 mph 0.01 in   Overcast
8:15 AM 30.2 °F 17.4 °F 28.4 °F 93% 29.38 in 0.5 mi NNW 20.7 mph 26.5 mph 0.01 in   Overcast
8:35 AM 30.2 °F 18.5 °F 28.4 °F 93% 29.41 in 0.5 mi NW 17.3 mph 23.0 mph 0.01 in   Overcast
8:55 AM 30.2 °F 17.8 °F 26.6 °F 86% 29.39 in 0.2 mi NNW 19.6 mph 26.5 mph 0.01 in   Overcast
9:15 AM 28.4 °F 15.1 °F 26.6 °F 93% 29.39 in 0.2 mi NNW 20.7 mph 24.2 mph N/A   Overcast
9:35 AM 28.4 °F 16.6 °F 26.6 °F 93% 29.38 in 0.5 mi NNW 16.1 mph 21.9 mph N/A   Overcast
9:55 AM 28.4 °F 15.4 °F 26.6 °F 93% 29.38 in 0.5 mi NNW 19.6 mph 27.6 mph N/A   Overcast
10:15 AM 28.4 °F 15.1 °F 26.6 °F 93% 29.37 in 1.0 mi NNW 20.7 mph 27.6 mph N/A   Overcast
10:35 AM 28.4 °F 15.1 °F 26.6 °F 93% 29.37 in 2.5 mi North 20.7 mph 26.5 mph N/A   Overcast
10:55 AM 30.2 °F 16.8 °F 26.6 °F 86% 29.37 in 4.0 mi NNW 23.0 mph 28.8 mph N/A   Overcast
11:15 AM 30.2 °F 17.4 °F 26.6 °F 86% 29.38 in 3.0 mi NNW 20.7 mph 24.2 mph N/A   Overcast
11:35 AM 28.4 °F 15.1 °F 26.6 °F 93% 29.38 in 1.2 mi NNW 20.7 mph 26.5 mph N/A   Overcast
11:55 AM 28.4 °F 16.6 °F 26.6 °F 93% 29.38 in 1.0 mi NNW 16.1 mph - N/A   Overcast
12:15 PM 28.4 °F 15.4 °F 26.6 °F 93% 29.37 in 1.0 mi NW 19.6 mph 23.0 mph N/A   Overcast
12:35 PM 28.4 °F 14.4 °F 24.8 °F 86% 29.37 in 1.2 mi NW 23.0 mph 26.5 mph N/A   Overcast
12:55 PM 28.4 °F 15.1 °F 23.0 °F 80% 29.38 in 2.0 mi NW 20.7 mph 27.6 mph N/A   Overcast
1:15 PM 28.4 °F 15.8 °F 23.0 °F 80% 29.39 in 2.5 mi NW 18.4 mph 24.2 mph N/A   Overcast
1:35 PM 26.6 °F 12.7 °F 21.2 °F 80% 29.39 in 3.0 mi NW 20.7 mph 26.5 mph N/A   Overcast
1:55 PM 26.6 °F 11.7 °F 21.2 °F 80% 29.40 in 4.0 mi NW 24.2 mph - N/A   Overcast
2:15 PM 26.6 °F 13.8 °F 21.2 °F 80% 29.41 in 2.5 mi NW 17.3 mph 24.2 mph N/A   Overcast
2:35 PM 26.6 °F 12.7 °F 21.2 °F 80% 29.43 in 4.0 mi NW 20.7 mph - N/A   Overcast
2:55 PM 26.6 °F 11.7 °F 19.4 °F 74% 29.44 in 2.5 mi NW 24.2 mph 28.8 mph N/A   Overcast
3:15 PM 24.8 °F 11.5 °F 21.2 °F 86% 29.44 in 1.2 mi NW 17.3 mph 26.5 mph N/A   Overcast
3:35 PM 24.8 °F 11.1 °F 21.2 °F 86% 29.46 in 1.2 mi WNW 18.4 mph 21.9 mph N/A   Overcast
3:55 PM 23.0 °F 8.3 °F 19.4 °F 86% 29.47 in 4.0 mi NW 19.6 mph 24.2 mph N/A   Overcast
4:15 PM 23.0 °F 8.7 °F 19.4 °F 86% 29.47 in 5.0 mi WNW 18.4 mph - N/A   Overcast
4:35 PM 23.0 °F 9.2 °F 19.4 °F 86% 29.49 in 7.0 mi WNW 17.3 mph 21.9 mph N/A   Overcast
4:55 PM 23.0 °F 11.1 °F 17.6 °F 80% 29.50 in 4.0 mi WNW 12.7 mph 24.2 mph N/A   Overcast
5:15 PM 21.2 °F 7.3 °F 17.6 °F 86% 29.51 in 7.0 mi WNW 16.1 mph 25.3 mph N/A   Overcast
5:35 PM 21.2 °F 6.4 °F 15.8 °F 80% 29.52 in 5.0 mi WNW 18.4 mph 25.3 mph N/A   Overcast
5:55 PM 19.4 °F 5.0 °F 14.0 °F 80% 29.54 in 7.0 mi WNW 16.1 mph - N/A   Overcast
6:15 PM 19.4 °F 5.5 °F 14.0 °F 80% 29.55 in 10.0 mi WNW 15.0 mph 24.2 mph N/A   Overcast
6:35 PM 19.4 °F 4.5 °F 14.0 °F 80% 29.56 in 10.0 mi WNW 17.3 mph 21.9 mph N/A   Overcast
6:55 PM 19.4 °F 6.6 °F 14.0 °F 80% 29.57 in 10.0 mi WNW 12.7 mph - N/A   Overcast
7:15 PM 19.4 °F 5.0 °F 12.2 °F 74% 29.57 in 10.0 mi WNW 16.1 mph 20.7 mph N/A   Overcast
7:35 PM 19.4 °F 5.0 °F 12.2 °F 74% 29.58 in 10.0 mi WNW 16.1 mph 21.9 mph N/A   Overcast
7:55 PM 19.4 °F 4.5 °F 12.2 °F 74% 29.58 in 7.0 mi WNW 17.3 mph - N/A   Overcast
8:15 PM 17.6 °F 2.7 °F 10.4 °F 73% 29.60 in 5.0 mi WNW 16.1 mph 23.0 mph N/A   Overcast
8:35 PM 17.6 °F 2.2 °F 10.4 °F 73% 29.61 in 7.0 mi WNW 17.3 mph 24.2 mph N/A   Overcast
8:55 PM 17.6 °F 2.7 °F 10.4 °F 73% 29.62 in 10.0 mi WNW 16.1 mph 21.9 mph N/A   Overcast
9:15 PM 17.6 °F 3.2 °F 10.4 °F 73% 29.63 in 10.0 mi West 15.0 mph 19.6 mph N/A   Overcast
9:35 PM 17.6 °F 2.2 °F 10.4 °F 73% 29.63 in 10.0 mi West 17.3 mph 20.7 mph N/A   Overcast
9:55 PM 15.8 °F 2.1 °F 10.4 °F 79% 29.64 in 10.0 mi WNW 12.7 mph 19.6 mph N/A   Overcast
10:15 PM 15.8 °F 1.4 °F 8.6 °F 73% 29.64 in 10.0 mi WNW 13.8 mph 20.7 mph N/A   Overcast
10:35 PM 15.8 °F 2.1 °F 8.6 °F 73% 29.65 in 10.0 mi WNW 12.7 mph 19.6 mph N/A   Overcast
10:55 PM 15.8 °F 0.9 °F 8.6 °F 73% 29.65 in 10.0 mi West 15.0 mph 19.6 mph N/A   Overcast
11:15 PM 15.8 °F 2.1 °F 8.6 °F 73% 29.66 in 10.0 mi WNW 12.7 mph 18.4 mph N/A   Overcast
11:35 PM 15.8 °F 3.4 °F 10.4 °F 79% 29.67 in 10.0 mi WNW 10.4 mph - N/A   Overcast
11:55 PM 15.8 °F 1.4 °F 10.4 °F 79% 29.67 in 10.0 mi West 13.8 mph - N/A   Overcast